GW2090 Weather Reports


Display with metric or nautical units.
time (UTC)temp
F
wind
direction
speed
MPH
gust
MPH
rain 1hr
in
rain 24hr
in
rain mn
in
humidity
%
barometer
mb
20260508050055 45 0 0.0 3.0 0.00 0.02 0.00 57 1007.3
20260508044555 45 360 0.0 2.0 0.00 0.06 0.00 56 1007.3
20260508043054 46 0 0.0 1.0 0.00 0.06 0.00 54 1007.5
20260508041613 46 0 0.0 2.0 0.00 0.06 0.00 53 1007.5
20260508040107 47 360 0.0 2.0 0.00 0.06 0.00 52 1007.4
20260508034551 47 360 0.0 2.0 0.00 0.06 0.06 50 1007.4
20260508033053 48 0 0.0 0.0 0.00 0.06 0.06 49 1007.5
20260508031551 48 360 1.0 3.0 0.00 0.06 0.06 48 1007.4
20260508030051 49 360 0.0 1.0 0.00 0.06 0.06 46 1007.7
20260508024603 49 0 0.0 3.0 0.00 0.06 0.06 48 1007.6
20260508023052 50 310 0.0 4.0 0.00 0.06 0.06 45 1007.3
20260508021555 50 0 0.0 4.0 0.00 0.06 0.06 45 1007.2
20260508020053 51 0 1.0 4.0 0.00 0.06 0.06 44 1007.2
20260508014548 52 0 0.0 4.0 0.00 0.08 0.06 43 1006.9
20260508013052 52 360 2.0 9.0 0.00 0.08 0.06 41 1006.8
20260508011556 53 0 1.0 6.0 0.00 0.08 0.06 42 1006.4
20260508010050 53 0 0.0 4.0 0.00 0.08 0.06 41 1006.3
20260508004555 54 0 0.0 5.0 0.00 0.08 0.06 41 1006.1
20260508003048 55 0 0.0 4.0 0.00 0.08 0.06 37 1005.6
20260508001550 56 0 1.0 8.0 0.00 0.08 0.06 36 1005.3
20260508000056 57 360 0.0 5.0 0.00 0.08 0.06 37 1005.2
20260507234551 57 360 2.0 6.0 0.00 0.08 0.06 36 1005.1
20260507233101 58 0 1.0 6.0 0.00 0.08 0.06 36 1004.9
20260507231556 58 360 1.0 4.0 0.00 0.08 0.06 35 1004.8
20260507230059 59 360 2.0 6.0 0.00 0.08 0.06 34 1004.6
20260507224559 60 360 3.0 11.0 0.00 0.08 0.06 33 1004.5
20260507223053 61 360 4.0 15.0 0.00 0.08 0.06 32 1004.4
20260507221551 61 360 1.0 8.0 0.00 0.08 0.06 35 1004.1
20260507220050 61 360 3.0 11.0 0.00 0.08 0.06 32 1004.0
20260507214603 61 360 4.0 12.0 0.00 0.12 0.06 32 1003.9
20260507213103 61 360 1.0 9.0 0.00 0.12 0.06 32 1004.0
20260507211551 62 360 3.0 12.0 0.00 0.12 0.06 32 1003.9
20260507210051 61 360 3.0 13.0 0.00 0.12 0.06 34 1003.8
20260507204550 62 360 5.0 14.0 0.00 0.15 0.06 32 1003.7
20260507203058 62 360 3.0 9.0 0.00 0.15 0.06 34 1003.7
20260507201555 63 360 1.0 12.0 0.00 0.15 0.06 34 1003.8
20260507200057 63 360 2.0 13.0 0.00 0.15 0.06 36 1003.7
20260507194618 63 360 4.0 13.0 0.00 0.24 0.06 35 1003.9
20260507193056 63 360 5.0 12.0 0.00 0.24 0.06 36 1003.7
20260507191556 62 360 3.0 11.0 0.00 0.24 0.06 35 1003.9
20260507190056 63 360 5.0 16.0 0.00 0.24 0.06 35 1004.0
20260507184556 63 360 3.0 16.0 0.00 0.24 0.06 37 1003.9
20260507183051 63 360 6.0 17.0 0.00 0.24 0.06 39 1004.0
20260507181558 63 360 5.0 17.0 0.00 0.24 0.06 43 1004.1
20260507180055 64 360 5.0 17.0 0.00 0.24 0.06 40 1004.3
20260507174600 63 360 4.0 19.0 0.00 0.24 0.06 44 1004.4
20260507173135 61 360 5.0 16.0 0.00 0.24 0.06 46 1004.6
20260507171610 62 360 4.0 16.0 0.00 0.24 0.06 45 1004.6
20260507170111 63 360 9.0 21.0 0.00 0.24 0.06 45 1004.7
20260507164558 63 360 4.0 11.0 0.00 0.24 0.06 49 1004.9
20260507163055 63 360 6.0 19.0 0.00 0.24 0.06 49 1005.0
20260507161606 61 360 5.0 14.0 0.00 0.24 0.06 50 1005.2
20260507160052 61 360 3.0 12.0 0.00 0.24 0.06 48 1005.3
20260507154554 62 360 3.0 9.0 0.00 0.24 0.06 52 1005.5
20260507153057 62 360 3.0 9.0 0.00 0.24 0.06 52 1005.7
20260507151556 61 0 2.0 10.0 0.00 0.24 0.06 48 1005.7
20260507150100 61 360 2.0 8.0 0.00 0.24 0.06 50 1005.7
20260507144600 59 360 2.0 8.0 0.00 0.24 0.06 55 1005.8
20260507143119 58 360 4.0 10.0 0.00 0.24 0.06 56 1005.8
20260507141628 58 360 0.0 4.0 0.00 0.24 0.06 62 1006.0
20260507140055 57 0 1.0 8.0 0.00 0.24 0.06 62 1006.2
20260507134602 56 0 0.0 5.0 0.00 0.24 0.06 63 1006.2
20260507133056 56 360 3.0 8.0 0.00 0.24 0.06 64 1006.2
20260507131551 56 360 2.0 5.0 0.00 0.24 0.06 65 1006.5
20260507130053 54 360 2.0 6.0 0.00 0.24 0.06 68 1006.5
20260507124552 53 360 2.0 6.0 0.00 0.24 0.06 72 1006.5
20260507123053 50 360 2.0 10.0 0.00 0.24 0.06 75 1006.5
20260507121550 49 360 1.0 9.0 0.00 0.24 0.06 80 1006.6
20260507120059 48 360 0.0 4.0 0.00 0.24 0.06 84 1006.4
20260507114553 48 360 1.0 4.0 0.00 0.24 0.06 87 1006.5
20260507113054 47 0 0.0 4.0 0.00 0.24 0.06 86 1006.5
20260507111556 47 360 2.0 5.0 0.00 0.24 0.06 87 1006.5
20260507104550 47 360 0.0 3.0 0.00 0.24 0.06 88 1006.6
20260507103050 47 360 0.0 2.0 0.00 0.24 0.06 88 1006.6
20260507101558 47 360 0.0 3.0 0.00 0.24 0.06 88 1007.0
20260507100054 47 0 0.0 1.0 0.00 0.24 0.06 88 1006.6
20260507094557 47 0 0.0 1.0 0.00 0.24 0.06 87 1006.5
20260507093052 47 360 0.0 3.0 0.00 0.24 0.06 87 1006.4
20260507091554 47 0 0.0 4.0 0.00 0.24 0.06 87 1005.8
20260507090056 47 360 1.0 3.0 0.00 0.24 0.06 87 1006.1
20260507084553 48 0 1.0 6.0 0.00 0.24 0.06 87 1006.0
20260507083056 48 360 2.0 6.0 0.00 0.24 0.06 87 1006.2
20260507081559 48 360 1.0 8.0 0.00 0.24 0.06 89 1005.5
20260507080059 49 0 1.0 6.0 0.00 0.24 0.06 90 1005.9
20260507074556 49 360 1.0 6.0 0.00 0.24 0.06 91 1005.9
20260507073130 49 360 1.0 5.0 0.00 0.24 0.06 92 1005.8
20260507071552 49 360 0.0 3.0 0.00 0.24 0.06 92 1005.4
20260507070055 50 0 0.0 1.0 0.00 0.24 0.06 92 1005.5
20260507064608 50 0 0.0 1.0 0.01 0.24 0.06 92 1005.5
20260507063102 50 0 0.0 1.0 0.01 0.24 0.06 92 1005.1
20260507061554 50 360 0.0 2.0 0.01 0.24 0.06 92 1005.2
20260507060057 50 0 0.0 3.0 0.02 0.24 0.06 92 1004.9
20260507054601 51 360 1.0 4.0 0.01 0.23 0.05 92 1004.9
20260507053101 51 0 1.0 6.0 0.02 0.23 0.05 92 1005.0
20260507051554 51 360 2.0 9.0 0.04 0.23 0.05 91 1005.0